TRA53Y EHAM-LGZA

Flight info

Callsign TRA53Y
Flight time N/A
Altitude 37000
Route EDUPO Z739 MISGO DCT DOJOH DCT DODEN DCT NEGIX DCT DINKU M867 XERUM DCT BAVAX DCT RADIZ DCT LUMUS DCT GORPA DCT NAVSU DCT TAZ DCT RODON DCT LIMJA DCT PITAS UN732 KRK UT321 ASTUS
Aircraft B738/M-SDE2E3FGHIJ1RWXYZ/LB1

Departure

Time N/A
Airport Amsterdam Airport Schiphol (EHAM)

Arrival

Time 2026-04-25 16:37
Airport Zakynthos International Airport Dionysios Solomos (LGZA)
Time Latitude Longitude Altitude Speed Heading
2026-04-25 16:05 40.10909 19.74637 36997 ft 449 kts 157°
2026-04-25 16:06 40.02095 19.78759 36975 ft 448 kts 157°
2026-04-25 16:06 39.96278 19.81474 36974 ft 448 kts 157°
2026-04-25 16:07 39.90412 19.84207 36970 ft 447 kts 157°
2026-04-25 16:07 39.84600 19.87058 36975 ft 446 kts 155°
2026-04-25 16:08 39.78824 19.90011 36966 ft 446 kts 155°
2026-04-25 16:08 39.73050 19.92944 36969 ft 446 kts 155°
2026-04-25 16:09 39.67259 19.95859 36964 ft 446 kts 155°
2026-04-25 16:09 39.61474 19.98760 36973 ft 446 kts 155°
2026-04-25 16:10 39.55689 20.01658 36967 ft 446 kts 155°
2026-04-25 16:10 39.49893 20.04557 36973 ft 446 kts 155°
2026-04-25 16:11 39.44014 20.07148 36964 ft 450 kts 165°
2026-04-25 16:11 39.37750 20.07853 36981 ft 454 kts 175°
2026-04-25 16:12 39.31430 20.08119 36975 ft 454 kts 175°
2026-04-25 16:12 39.28269 20.08268 36862 ft 457 kts 175°
2026-04-25 16:12 39.25085 20.08436 36517 ft 456 kts 175°
2026-04-25 16:13 39.18823 20.08794 35743 ft 446 kts 174°
2026-04-25 16:13 39.15738 20.08976 35351 ft 443 kts 174°
2026-04-25 16:13 39.12665 20.09158 34950 ft 440 kts 174°
2026-04-25 16:13 39.09627 20.09337 34558 ft 437 kts 174°
2026-04-25 16:14 39.06632 20.09513 34172 ft 434 kts 173°
2026-04-25 16:14 39.03623 20.09689 33749 ft 432 kts 173°
2026-04-25 16:14 39.00631 20.10186 33170 ft 427 kts 162°
2026-04-25 16:14 38.97807 20.11345 32456 ft 426 kts 155°
2026-04-25 16:15 38.95064 20.12686 31789 ft 429 kts 155°
2026-04-25 16:15 38.92266 20.14058 31126 ft 432 kts 155°
2026-04-25 16:15 38.89411 20.15450 30456 ft 435 kts 155°
2026-04-25 16:15 38.86568 20.16823 29773 ft 437 kts 156°
2026-04-25 16:16 38.83712 20.18192 29025 ft 439 kts 156°
2026-04-25 16:16 38.80888 20.19537 28312 ft 440 kts 156°
2026-04-25 16:16 38.78026 20.20896 27676 ft 439 kts 156°
2026-04-25 16:16 38.75165 20.22251 27043 ft 437 kts 156°
2026-04-25 16:17 38.72317 20.23598 26435 ft 436 kts 156°
2026-04-25 16:17 38.69478 20.24940 25845 ft 434 kts 156°
2026-04-25 16:17 38.66650 20.26277 25258 ft 432 kts 156°
2026-04-25 16:17 38.63835 20.27606 24684 ft 431 kts 156°
2026-04-25 16:18 38.61027 20.28931 24126 ft 429 kts 156°
2026-04-25 16:18 38.60086 20.29375 23936 ft 428 kts 156°
2026-04-25 16:18 38.55456 20.31558 22927 ft 425 kts 156°
2026-04-25 16:18 38.52688 20.32861 22293 ft 423 kts 157°
2026-04-25 16:19 38.49935 20.34157 21667 ft 421 kts 157°
2026-04-25 16:19 38.47193 20.35446 21059 ft 419 kts 157°
2026-04-25 16:19 38.44459 20.36730 20460 ft 417 kts 157°
2026-04-25 16:20 38.39042 20.39272 19290 ft 413 kts 157°
2026-04-25 16:20 38.36349 20.40534 18725 ft 411 kts 157°
2026-04-25 16:20 38.31001 20.43037 17513 ft 407 kts 157°
2026-04-25 16:21 38.28348 20.44278 16880 ft 403 kts 157°
2026-04-25 16:21 38.25748 20.45491 16277 ft 393 kts 157°
2026-04-25 16:21 38.23221 20.46668 15782 ft 382 kts 157°
2026-04-25 16:21 38.20757 20.47816 15276 ft 372 kts 157°
2026-04-25 16:22 38.18355 20.48935 14786 ft 364 kts 157°
2026-04-25 16:22 38.16003 20.50031 14325 ft 356 kts 157°
2026-04-25 16:22 38.13703 20.51102 13897 ft 348 kts 157°
2026-04-25 16:22 38.11451 20.52149 13462 ft 340 kts 157°
2026-04-25 16:23 38.09255 20.53170 13024 ft 333 kts 157°
2026-04-25 16:23 38.07109 20.54167 12652 ft 324 kts 157°
2026-04-25 16:23 38.05006 20.55144 12318 ft 320 kts 157°
2026-04-25 16:23 38.02953 20.56099 11992 ft 317 kts 157°
2026-04-25 16:24 38.00885 20.57059 11674 ft 315 kts 157°
2026-04-25 16:24 37.98835 20.58010 11356 ft 313 kts 157°
2026-04-25 16:24 37.96800 20.58953 11039 ft 310 kts 157°
2026-04-25 16:24 37.94780 20.59889 10723 ft 308 kts 157°
2026-04-25 16:25 37.92770 20.60819 10408 ft 307 kts 158°
2026-04-25 16:25 37.92094 20.61132 10303 ft 306 kts 158°
2026-04-25 16:25 37.88833 20.62638 10043 ft 294 kts 157°
2026-04-25 16:25 37.86923 20.63520 9765 ft 291 kts 157°
2026-04-25 16:26 37.85026 20.64395 9460 ft 289 kts 157°
2026-04-25 16:26 37.83141 20.65265 9168 ft 288 kts 157°
2026-04-25 16:26 37.81265 20.66131 8857 ft 286 kts 157°
2026-04-25 16:26 37.79405 20.66989 8582 ft 284 kts 157°
2026-04-25 16:27 37.77552 20.67843 8299 ft 282 kts 157°
2026-04-25 16:27 37.75714 20.68688 8010 ft 281 kts 157°
2026-04-25 16:27 37.73883 20.69531 7732 ft 279 kts 157°
2026-04-25 16:27 37.72070 20.70365 7457 ft 277 kts 157°
2026-04-25 16:28 37.70265 20.71196 7172 ft 275 kts 157°
2026-04-25 16:28 37.69078 20.71741 6996 ft 274 kts 157°
2026-04-25 16:28 37.67287 20.72564 6722 ft 273 kts 157°
2026-04-25 16:28 37.65511 20.73380 6450 ft 271 kts 157°
2026-04-25 16:29 37.63740 20.74193 6169 ft 270 kts 157°
2026-04-25 16:29 37.61982 20.75000 5887 ft 268 kts 157°
2026-04-25 16:29 37.60232 20.75802 5608 ft 267 kts 157°
2026-04-25 16:29 37.58493 20.76598 5332 ft 265 kts 157°
2026-04-25 16:30 37.56763 20.77390 5063 ft 264 kts 157°
2026-04-25 16:30 37.55210 20.78538 4752 ft 257 kts 127°
2026-04-25 16:30 37.54573 20.80504 4681 ft 238 kts 91°
2026-04-25 16:30 37.54675 20.82528 4586 ft 228 kts 81°
2026-04-25 16:31 37.54729 20.84496 4454 ft 221 kts 91°
2026-04-25 16:31 37.54618 20.86392 4375 ft 212 kts 91°
2026-04-25 16:31 37.54562 20.88180 4298 ft 199 kts 87°
2026-04-25 16:31 37.54589 20.89910 4115 ft 198 kts 84°
2026-04-25 16:32 37.54691 20.91634 3911 ft 197 kts 81°
2026-04-25 16:32 37.54935 20.93298 3706 ft 189 kts 64°
2026-04-25 16:32 37.55770 20.94468 3495 ft 178 kts 22°
2026-04-25 16:32 37.56946 20.94522 3333 ft 169 kts 349°
2026-04-25 16:33 37.58108 20.94281 3131 ft 170 kts 352°
2026-04-25 16:33 37.59261 20.93942 2943 ft 170 kts 346°
2026-04-25 16:33 37.60400 20.93542 2754 ft 170 kts 345°
2026-04-25 16:33 37.61533 20.93145 2556 ft 166 kts 345°
2026-04-25 16:34 37.62625 20.92766 2401 ft 159 kts 344°
2026-04-25 16:34 37.63673 20.92403 2236 ft 151 kts 343°
2026-04-25 16:34 37.64653 20.92063 2030 ft 143 kts 344°
2026-04-25 16:34 37.65604 20.91736 1841 ft 138 kts 345°
2026-04-25 16:35 37.66526 20.91451 1713 ft 138 kts 345°
2026-04-25 16:35 37.67455 20.91176 1500 ft 136 kts 345°
2026-04-25 16:35 37.68374 20.90919 1335 ft 134 kts 344°
2026-04-25 16:35 37.69302 20.90643 1160 ft 141 kts 343°
2026-04-25 16:36 37.70250 20.90323 975 ft 141 kts 340°
2026-04-25 16:36 37.70555 20.90206 906 ft 140 kts 340°
2026-04-25 16:36 37.72080 20.89548 561 ft 139 kts 343°
2026-04-25 16:36 37.72996 20.89216 376 ft 139 kts 343°
2026-04-25 16:37 37.73928 20.88859 158 ft 140 kts 342°
2026-04-25 16:37 37.74844 20.88517 28 ft 130 kts 343°
2026-04-25 16:37 37.75575 20.88245 20 ft 75 kts 344°
2026-04-25 16:37 37.75836 20.88155 21 ft 22 kts 360°
2026-04-25 16:38 37.75881 20.88126 21 ft 2 kts 244°
2026-04-25 16:38 37.75871 20.88124 21 ft 1 kts 178°
2026-04-25 16:38 37.75858 20.88133 23 ft 3 kts 150°
2026-04-25 16:38 37.75829 20.88153 21 ft 6 kts 156°
2026-04-25 16:39 37.75780 20.88173 24 ft 9 kts 162°
2026-04-25 16:39 37.75713 20.88198 22 ft 12 kts 164°
2026-04-25 16:39 37.75622 20.88228 21 ft 15 kts 163°
2026-04-25 16:39 37.75514 20.88274 20 ft 15 kts 148°
2026-04-25 16:40 37.75472 20.88387 22 ft 14 kts 119°
2026-04-25 16:40 37.75388 20.88436 19 ft 14 kts 163°
2026-04-25 16:40 37.75357 20.88481 19 ft 8 kts 78°
2026-04-25 16:40 37.75368 20.88532 19 ft 3 kts 73°
2026-04-25 16:41 37.75369 20.88536 19 ft 0 kts 72°